Satellite-Ground Cal/Val Site Overpasses Predictions

Prediction of Satellite NPP Overpassing Cal/Val Site: Antarctic Dome C

Ground Cal/Val Site Location: Latitude: -75.10, Longitude: 123.35; Satellite-Ground Site NADIR distance within 100 km.

Table of predicted overpasses for the next 14.0 days since TLE Epoch: 11/18/2014
Interval Starting Time Ending Time Minimum Distance Time Minimum Distance (km)
1 11/21/2014 15:03:20 11/21/2014 15:03:49 11/21/2014 15:03:34 16.62
2 11/22/2014 14:44:38 11/22/2014 14:44:50 11/22/2014 14:44:44 90.36
3 11/23/2014 07:46:09 11/23/2014 07:46:35 11/23/2014 07:46:22 42.55
4 11/24/2014 07:27:21 11/24/2014 07:27:42 11/24/2014 07:27:31 67.41
5 11/26/2014 15:09:34 11/26/2014 15:09:59 11/26/2014 15:09:47 54.16
6 11/27/2014 14:50:44 11/27/2014 14:51:09 11/27/2014 14:50:57 55.14
7 11/28/2014 07:52:26 11/28/2014 07:52:44 11/28/2014 07:52:35 78.03
8 11/29/2014 07:33:30 11/29/2014 07:33:58 11/29/2014 07:33:44 29.87


NCC Satellite Cal/Val Overpasses Prediction Service
